EW8360 Weather Reports


Display with metric or nautical units.
time (UTC)temp
F
wind
direction
speed
MPH
gust
MPH
rain 1hr
in
rain 24hr
in
rain mn
in
humidity
%
barometer
mb
20260905173002 78 286 1.0 5.0 0.00 0.00 0.00 62 1012.4
20260905172502 78 286 2.0 5.0 0.00 0.00 0.00 60 1012.3
20260905172225 77 265 4.0 5.0 0.00 0.00 0.00 61 1012.3
20260905171502 77 249 1.0 6.0 0.00 0.00 0.00 62 1012.2
20260905171002 77 343 3.0 6.0 0.00 0.00 0.00 62 1012.2
20260905170731 77 277 1.0 6.0 0.00 0.00 0.00 63 1012.3
20260905170005 77 322 3.0 6.0 0.00 0.00 0.00 62 1012.1
20260905165502 76 318 0.0 3.0 0.00 0.00 0.00 62 1012.2
20260905165002 76 277 2.0 3.0 0.00 0.00 0.00 63 1012.2
20260905164502 75 282 1.0 3.0 0.00 0.00 0.00 64 1012.3
20260905164002 75 276 0.0 5.0 0.00 0.00 0.00 65 1012.2
20260905163504 74 239 2.0 5.0 0.00 0.00 0.00 66 1012.2
20260905163001 74 298 1.0 5.0 0.00 0.00 0.00 67 1012.2
20260905162002 73 321 3.0 6.0 0.00 0.00 0.00 68 1012.2
20260905161502 73 269 1.0 5.0 0.00 0.00 0.00 68 1012.1
20260905161000 73 314 3.0 5.0 0.00 0.00 0.00 68 1012.2
20260905160722 72 277 1.0 5.0 0.00 0.00 0.00 67 1012.1
20260905160002 72 324 3.0 3.0 0.00 0.00 0.00 69 1012.1
20260905155722 71 310 0.0 5.0 0.00 0.00 0.00 70 1012.2
20260905155001 71 340 2.0 5.0 0.00 0.00 0.00 72 1012.1
20260905154500 70 320 0.0 3.0 0.00 0.00 0.00 71 1012.2
20260905154004 70 273 0.0 3.0 0.00 0.00 0.00 70 1012.3
20260905153501 69 301 1.0 3.0 0.00 0.00 0.00 70 1012.2
20260905152959 68 271 0.0 3.0 0.00 0.00 0.00 72 1012.2
20260905152459 68 340 1.0 3.0 0.00 0.00 0.00 75 1012.2
20260905152000 68 357 2.0 3.0 0.00 0.00 0.00 77 1012.2
20260905151500 67 331 1.0 3.0 0.00 0.00 0.00 78 1012.1
20260905150958 67 328 1.0 3.0 0.00 0.00 0.00 78 1012.1
20260905150458 66 271 0.0 3.0 0.00 0.00 0.00 77 1012.1
20260905150000 66 194 1.0 3.0 0.00 0.00 0.00 76 1012.1
20260905145459 66 217 0.0 3.0 0.00 0.00 0.00 81 1012.0
20260905144958 66 305 0.0 5.0 0.00 0.00 0.00 82 1011.8
20260905144458 66 17 3.0 5.0 0.00 0.00 0.00 82 1011.8
20260905143959 66 348 2.0 5.0 0.00 0.00 0.00 82 1011.7
20260905143459 65 320 2.0 5.0 0.00 0.00 0.00 82 1011.7
20260905143220 65 349 1.0 5.0 0.00 0.00 0.00 81 1011.5
20260905142457 65 359 2.0 5.0 0.00 0.00 0.00 82 1011.5
20260905141956 64 325 0.0 6.0 0.00 0.00 0.00 83 1011.6
20260905141457 64 328 1.0 6.0 0.00 0.00 0.00 84 1011.6
20260905140957 64 37 2.0 6.0 0.00 0.00 0.00 85 1011.6
20260905140456 64 36 2.0 6.0 0.00 0.00 0.00 86 1011.5
20260905135957 64 37 5.0 6.0 0.00 0.00 0.00 87 1011.5
20260905135458 63 323 1.0 2.0 0.00 0.00 0.00 90 1011.5
20260905134957 63 321 0.0 2.0 0.00 0.00 0.00 89 1011.5
20260905134219 63 305 0.0 6.0 0.00 0.00 0.00 88 1011.3
20260905133721 63 43 4.0 6.0 0.00 0.00 0.00 88 1011.3
20260905132957 63 348 1.0 6.0 0.00 0.00 0.00 89 1011.3
20260905132455 63 36 3.0 5.0 0.00 0.00 0.00 90 1011.2
20260905131955 63 20 1.0 3.0 0.00 0.00 0.00 90 1011.1
20260905131457 63 322 2.0 5.0 0.00 0.00 0.00 89 1011.1
20260905130956 63 300 1.0 6.0 0.00 0.00 0.00 89 1011.2
20260905130455 63 27 3.0 6.0 0.00 0.00 0.00 89 1011.1
20260905125954 63 223 1.0 5.0 0.00 0.00 0.00 90 1011.2
20260905125456 63 348 3.0 5.0 0.00 0.00 0.00 90 1011.0
20260905124956 63 25 2.0 5.0 0.00 0.00 0.00 90 1011.1
20260905124455 63 50 0.0 5.0 0.00 0.00 0.00 91 1011.0
20260905123955 63 46 3.0 6.0 0.00 0.00 0.00 90 1010.9
20260905123456 63 9 2.0 6.0 0.00 0.00 0.00 90 1010.8
20260905122956 63 29 3.0 6.0 0.00 0.00 0.00 90 1010.8
20260905122455 63 39 5.0 6.0 0.00 0.00 0.00 90 1010.8
20260905121955 63 32 4.0 6.0 0.00 0.00 0.00 90 1010.7
20260905121455 63 356 4.0 6.0 0.00 0.00 0.00 90 1010.8
20260905120956 63 359 2.0 6.0 0.00 0.00 0.00 91 1010.9
20260905120455 63 357 2.0 5.0 0.00 0.00 0.00 90 1010.9
20260905115454 63 359 1.0 3.0 0.00 0.00 0.00 91 1010.9
20260905114955 63 9 1.0 3.0 0.00 0.00 0.00 91 1010.9
20260905113954 63 323 0.0 3.0 0.00 0.00 0.00 90 1010.9
20260905113453 63 11 2.0 3.0 0.00 0.00 0.00 90 1011.0
20260905112954 63 291 0.0 2.0 0.00 0.00 0.00 90 1011.0
20260905112720 63 346 2.0 3.0 0.00 0.00 0.00 90 1011.1
20260905111953 63 352 1.0 3.0 0.00 0.00 0.00 90 1011.0
20260905111453 63 298 2.0 3.0 0.00 0.00 0.00 89 1011.1
20260905110954 63 350 1.0 3.0 0.00 0.00 0.00 89 1011.1
20260905110454 63 290 0.0 3.0 0.00 0.00 0.00 89 1011.1
20260905105953 63 348 1.0 3.0 0.00 0.00 0.00 89 1011.1
20260905105453 63 16 1.0 5.0 0.00 0.00 0.00 90 1011.2
20260905104954 63 23 1.0 5.0 0.00 0.00 0.00 90 1011.2
20260905104452 63 355 1.0 5.0 0.00 0.00 0.00 90 1011.2
20260905103952 63 5 1.0 5.0 0.00 0.00 0.00 90 1011.2
20260905103452 63 314 0.0 3.0 0.00 0.00 0.00 90 1011.2
20260905103212 63 345 1.0 3.0 0.00 0.00 0.00 89 1011.2
20260905102452 63 349 1.0 2.0 0.00 0.00 0.00 89 1011.2
20260905102214 64 314 0.0 2.0 0.00 0.00 0.00 89 1011.3
20260905101453 64 347 1.0 1.0 0.00 0.00 0.00 89 1011.2
20260905100953 64 283 0.0 0.0 0.00 0.00 0.00 89 1011.3
20260905100450 64 320 0.0 0.0 0.00 0.00 0.00 88 1011.2
20260905100039 64 296 0.0 3.0 0.00 0.00 0.00 88 1011.3
20260905095539 64 302 1.0 2.0 0.00 0.00 0.00 88 1011.3
20260905095038 64 300 0.0 0.0 0.00 0.00 0.00 88 1011.4
20260905094540 64 286 0.0 0.0 0.00 0.00 0.00 88 1011.3
20260905094039 64 305 0.0 0.0 0.00 0.00 0.00 88 1011.3
20260905093538 64 305 0.0 0.0 0.00 0.00 0.00 88 1011.4
20260905093038 64 300 0.0 5.0 0.00 0.00 0.00 88 1011.5
20260905092539 64 332 0.0 5.0 0.00 0.00 0.00 88 1011.4
20260905092039 64 342 4.0 5.0 0.00 0.00 0.00 88 1011.4
20260905091538 64 277 0.0 0.0 0.00 0.00 0.00 88 1011.5
20260905091038 64 275 0.0 0.0 0.00 0.00 0.00 88 1011.5
20260905090757 65 282 0.0 2.0 0.00 0.00 0.00 89 1011.3
20260905090039 65 293 0.0 2.0 0.00 0.00 0.00 89 1011.5
20260905085538 65 273 1.0 1.0 0.00 0.00 0.00 88 1011.5
20260905085038 65 272 0.0 2.0 0.00 0.00 0.00 88 1011.5
20260905084539 65 302 2.0 2.0 0.00 0.00 0.00 88 1011.6
20260905084038 65 287 0.0 3.0 0.00 0.00 0.00 88 1011.7
20260905083537 65 339 0.0 3.0 0.00 0.00 0.00 88 1011.6
20260905083037 65 304 0.0 2.0 0.00 0.00 0.00 88 1011.6
20260905082804 65 297 0.0 2.0 0.00 0.00 0.00 87 1011.8
20260905082038 65 310 0.0 5.0 0.00 0.00 0.00 87 1011.9
20260905081537 65 266 0.0 5.0 0.00 0.00 0.00 87 1011.9
20260905081037 65 2 3.0 5.0 0.00 0.00 0.00 88 1012.0
20260905080756 65 267 0.0 6.0 0.00 0.00 0.00 88 1012.0
20260905080038 65 7 2.0 6.0 0.00 0.00 0.00 87 1011.9
20260905075536 66 15 2.0 5.0 0.00 0.00 0.00 87 1012.0
20260905075036 66 291 1.0 3.0 0.00 0.00 0.00 87 1012.0
20260905074537 66 314 0.0 5.0 0.00 0.00 0.00 87 1012.0
20260905074037 66 293 0.0 5.0 0.00 0.00 0.00 86 1012.1
20260905073536 66 28 3.0 5.0 0.00 0.00 0.00 86 1012.1
20260905073035 66 66 2.0 5.0 0.00 0.00 0.00 86 1012.2
20260905072538 66 18 2.0 6.0 0.00 0.00 0.00 86 1012.2
20260905072037 66 21 2.0 6.0 0.00 0.00 0.00 86 1012.2
20260905071536 66 11 2.0 5.0 0.00 0.00 0.00 86 1012.2
20260905070534 66 356 1.0 3.0 0.00 0.00 0.00 86 1012.2
20260905070037 66 295 0.0 0.0 0.00 0.00 0.00 86 1012.3
20260905065535 66 310 0.0 0.0 0.00 0.00 0.00 86 1012.3
20260905064535 66 268 0.0 0.0 0.00 0.00 0.00 86 1012.2
20260905064037 66 271 0.0 0.0 0.00 0.00 0.00 86 1012.3
20260905063535 66 252 0.0 0.0 0.00 0.00 0.00 86 1012.3
20260905062535 66 266 0.0 0.0 0.00 0.00 0.00 86 1012.2
20260905062035 66 272 0.0 0.0 0.00 0.00 0.00 86 1012.2
20260905061535 66 267 0.0 0.0 0.00 0.00 0.00 87 1012.2
20260905061034 66 252 0.0 0.0 0.00 0.00 0.00 86 1012.1
20260905060534 66 249 0.0 0.0 0.00 0.00 0.00 86 1012.2
20260905060035 66 260 0.0 2.0 0.00 0.00 0.00 86 1012.2
20260905055535 66 256 0.0 2.0 0.00 0.00 0.00 85 1012.1
20260905055034 66 278 2.0 2.0 0.00 0.00 0.00 85 1012.1
20260905054534 66 269 0.0 0.0 0.00 0.00 0.00 85 1012.1
20260905054035 66 266 0.0 0.0 0.00 0.00 0.00 85 1012.1
20260905053534 66 269 0.0 0.0 0.00 0.00 0.00 86 1012.1
20260905053032 66 259 0.0 0.0 0.00 0.00 0.00 86 1012.1
20260905052533 66 261 0.0 0.0 0.00 0.00 0.00 86 1012.1
20260905052034 66 251 0.0 0.0 0.00 0.00 0.00 86 1012.1
20260905051534 66 255 0.0 0.0 0.00 0.00 0.00 86 1012.1
20260905051032 66 246 0.0 0.0 0.00 0.00 0.00 86 1012.1
20260905050533 67 245 0.0 0.0 0.00 0.00 0.00 85 1012.1
20260905050034 67 248 0.0 0.0 0.00 0.00 0.00 85 1012.2
20260905045534 67 258 0.0 0.0 0.00 0.00 0.00 85 1012.1
20260905045033 67 264 0.0 2.0 0.00 0.00 0.00 85 1012.0
20260905044532 67 258 1.0 3.0 0.00 0.00 0.00 85 1012.0
20260905044034 67 265 2.0 3.0 0.00 0.00 0.00 85 1012.0
20260905043533 67 262 0.0 2.0 0.00 0.00 0.00 85 1011.9
20260905043032 67 269 0.0 3.0 0.00 0.00 0.00 85 1011.9
20260905042532 67 266 1.0 3.0 0.00 0.00 0.00 85 1011.7
20260905042034 67 261 0.0 2.0 0.00 0.00 0.00 85 1011.6
20260905041533 67 246 1.0 2.0 0.00 0.00 0.00 85 1011.7
20260905041031 67 256 1.0 2.0 0.00 0.00 0.00 85 1011.7
20260905040531 67 259 1.0 3.0 0.00 0.00 0.00 85 1011.6
20260905040031 67 260 1.0 3.0 0.00 0.00 0.00 85 1011.7
20260905035532 67 267 2.0 3.0 0.00 0.00 0.00 84 1011.6
20260905035250 67 259 1.0 3.0 0.00 0.00 0.00 85 1011.6
20260905034531 67 257 1.0 3.0 0.00 0.00 0.00 84 1011.5
20260905034031 67 255 2.0 3.0 0.00 0.00 0.00 85 1011.4
20260905033532 67 255 1.0 5.0 0.00 0.00 0.00 85 1011.4
20260905033031 67 258 0.0 5.0 0.00 0.00 0.00 85 1011.3
20260905032531 67 264 2.0 3.0 0.00 0.00 0.00 85 1011.3
20260905032031 67 282 3.0 3.0 0.00 0.00 0.00 84 1011.3
20260905031531 67 278 3.0 6.0 0.00 0.00 0.00 85 1011.3
20260905031031 67 265 3.0 6.0 0.00 0.00 0.00 84 1011.1
20260905030530 67 274 2.0 6.0 0.00 0.00 0.00 84 1011.1
20260905030250 67 290 3.0 6.0 0.00 0.00 0.00 84 1011.0
20260905025531 67 254 2.0 6.0 0.00 0.00 0.00 84 1011.0
20260905025031 67 309 2.0 6.0 0.00 0.00 0.00 84 1011.0
20260905024530 67 279 3.0 6.0 0.00 0.00 0.00 84 1010.9
20260905024030 67 298 4.0 6.0 0.00 0.00 0.00 83 1011.0
20260905023757 68 255 1.0 6.0 0.00 0.00 0.00 83 1011.0
20260905023030 68 274 3.0 5.0 0.00 0.00 0.00 83 1011.0
20260905022754 68 276 1.0 5.0 0.00 0.00 0.00 83 1011.0
20260905022029 68 273 3.0 6.0 0.00 0.00 0.00 83 1010.8
20260905021534 69 208 1.0 6.0 0.00 0.00 0.00 83 1010.9
20260905021030 69 258 2.0 6.0 0.00 0.00 0.00 82 1010.9
20260905020528 69 303 1.0 6.0 0.00 0.00 0.00 81 1010.8
20260905020029 69 279 3.0 6.0 0.00 0.00 0.00 81 1010.9
20260905015748 70 298 3.0 7.0 0.00 0.00 0.00 80 1010.9
20260905015029 70 301 5.0 7.0 0.00 0.00 0.00 79 1010.9
20260905014527 70 283 2.0 8.0 0.00 0.00 0.00 79 1010.9
20260905014027 71 268 2.0 8.0 0.00 0.00 0.00 78 1010.8
20260905013749 71 282 3.0 8.0 0.00 0.00 0.00 78 1010.7
20260905013028 71 300 2.0 8.0 0.00 0.00 0.00 77 1010.7
20260905012745 71 23 5.0 8.0 0.00 0.00 0.00 76 1010.6
20260905012027 72 315 1.0 8.0 0.00 0.00 0.00 76 1010.7
20260905011528 72 285 2.0 8.0 0.00 0.00 0.00 75 1010.7
20260905011027 72 273 2.0 8.0 0.00 0.00 0.00 75 1010.8
20260905010527 73 288 5.0 7.0 0.00 0.00 0.00 75 1010.8
20260905010027 73 256 1.0 6.0 0.00 0.00 0.00 73 1010.8
20260905005746 73 255 1.0 8.0 0.00 0.00 0.00 74 1010.8
20260905005028 73 263 3.0 8.0 0.00 0.00 0.00 73 1010.7
20260905004527 73 253 3.0 8.0 0.00 0.00 0.00 72 1010.7
20260905004026 73 282 2.0 8.0 0.00 0.00 0.00 72 1010.7
20260905003527 73 328 3.0 7.0 0.00 0.00 0.00 73 1010.8
20260905003027 73 351 3.0 7.0 0.00 0.00 0.00 70 1010.8
20260905002749 73 323 2.0 7.0 0.00 0.00 0.00 72 1010.9
20260905002026 74 336 2.0 7.0 0.00 0.00 0.00 71 1010.7
20260905001526 74 268 3.0 8.0 0.00 0.00 0.00 71 1010.8
20260905001027 74 242 1.0 8.0 0.00 0.00 0.00 70 1010.8
20260905000528 74 304 3.0 7.0 0.00 0.00 0.00 69 1010.8
20260905000026 73 326 3.0 8.0 0.00 0.00 0.00 69 1010.9
20260904235525 73 186 2.0 8.0 0.00 0.00 0.00 69 1010.9
20260904235026 73 7 5.0 7.0 0.00 0.00 0.00 67 1010.9
20260904234527 73 287 2.0 7.0 0.00 0.00 0.00 68 1010.9
20260904234026 73 316 5.0 7.0 0.00 0.00 0.00 68 1011.0
20260904233526 73 302 3.0 9.0 0.00 0.00 0.00 68 1011.0
20260904233027 73 265 2.0 9.0 0.00 0.00 0.00 68 1011.0
20260904232528 73 259 3.0 9.0 0.00 0.00 0.00 67 1010.9
20260904232025 74 227 7.0 9.0 0.00 0.00 0.00 67 1010.9
20260904231525 74 269 3.0 13.0 0.00 0.00 0.00 68 1010.8
20260904231027 74 346 5.0 13.0 0.00 0.00 0.00 67 1011.0
20260904230754 74 315 7.0 12.0 0.00 0.00 0.00 67 1010.9
20260904230026 74 309 4.0 12.0 0.00 0.00 0.00 69 1011.1
20260904225753 74 265 1.0 9.0 0.00 0.00 0.00 65 1011.2
20260904225250 73 265 1.0 9.0 0.00 0.00 0.00 65 1011.1
20260904224245 73 286 3.0 12.0 0.00 0.00 0.00 67 1011.2
20260904223525 74 20 5.0 12.0 0.00 0.00 0.00 67 1011.2
20260904223024 74 267 3.0 12.0 0.00 0.00 0.00 68 1011.3
20260904222525 74 326 5.0 10.0 0.00 0.00 0.00 67 1011.3
20260904222025 74 345 6.0 10.0 0.00 0.00 0.00 68 1011.3
20260904221524 74 340 7.0 10.0 0.00 0.00 0.00 68 1011.5
20260904221024 74 324 6.0 12.0 0.00 0.00 0.00 66 1011.5
20260904220525 74 252 2.0 12.0 0.00 0.00 0.00 66 1011.5
20260904220024 74 313 4.0 9.0 0.00 0.00 0.00 67 1011.5
20260904215524 74 344 4.0 13.0 0.00 0.00 0.00 67 1011.6
20260904215024 74 352 10.0 13.0 0.00 0.00 0.00 67 1011.6
20260904214524 74 292 5.0 13.0 0.00 0.00 0.00 66 1011.6
20260904214024 74 334 5.0 13.0 0.00 0.00 0.00 67 1011.6
20260904213523 74 274 6.0 12.0 0.00 0.00 0.00 67 1011.6
20260904213241 74 356 4.0 12.0 0.00 0.00 0.00 66 1011.6
20260904212800 74 296 4.0 9.0 0.00 0.00 0.00 64 1011.5
20260904212023 74 241 3.0 9.0 0.00 0.00 0.00 67 1011.6
20260904211745 74 287 4.0 10.0 0.00 0.00 0.00 65 1011.6
20260904211023 74 262 5.0 10.0 0.00 0.00 0.00 67 1011.6
20260904210024 74 314 9.0 16.0 0.00 0.00 0.00 69 1011.5
20260904205522 74 4 4.0 14.0 0.00 0.00 0.00 67 1011.6
20260904205024 74 325 9.0 14.0 0.00 0.00 0.00 69 1011.7
20260904204747 74 263 4.0 15.0 0.00 0.00 0.00 65 1011.7
20260904204024 74 239 6.0 15.0 0.00 0.00 0.00 68 1011.8
20260904203523 74 282 7.0 10.0 0.00 0.00 0.00 66 1011.8
20260904203023 74 218 3.0 9.0 0.00 0.00 0.00 67 1011.7
20260904202750 74 341 5.0 9.0 0.00 0.00 0.00 67 1011.7
20260904202019 74 309 5.0 12.0 0.00 0.00 0.00 66 1011.8
20260904201748 74 306 7.0 12.0 0.00 0.00 0.00 67 1011.8
20260904201022 74 335 6.0 16.0 0.00 0.00 0.00 69 1011.7
20260904200022 75 307 13.0 16.0 0.00 0.00 0.00 67 1011.7
20260904195522 75 305 5.0 8.0 0.00 0.00 0.00 65 1011.7
20260904195022 75 319 4.0 13.0 0.00 0.00 0.00 64 1011.9
20260904194524 75 253 4.0 13.0 0.00 0.00 0.00 65 1011.9
20260904194023 75 310 5.0 9.0 0.00 0.00 0.00 65 1012.0
20260904193746 75 3 6.0 9.0 0.00 0.00 0.00 65 1012.0
20260904193020 75 355 7.0 8.0 0.00 0.00 0.00 64 1012.0
20260904192520 75 267 3.0 8.0 0.00 0.00 0.00 63 1012.2
20260904192021 74 278 2.0 10.0 0.00 0.00 0.00 65 1012.2
20260904191521 74 293 5.0 10.0 0.00 0.00 0.00 65 1012.1
20260904191020 74 257 3.0 8.0 0.00 0.00 0.00 64 1012.1
20260904190520 74 279 5.0 7.0 0.00 0.00 0.00 63 1012.2
20260904190022 73 247 2.0 7.0 0.00 0.00 0.00 65 1012.3
20260904185521 73 288 4.0 8.0 0.00 0.00 0.00 65 1012.4
20260904185020 73 260 3.0 10.0 0.00 0.00 0.00 67 1012.4
20260904184520 73 337 4.0 13.0 0.00 0.00 0.00 68 1012.5
20260904184021 73 271 3.0 13.0 0.00 0.00 0.00 66 1012.6
20260904183520 73 317 7.0 15.0 0.00 0.00 0.00 70 1012.6
20260904183020 73 248 6.0 15.0 0.00 0.00 0.00 68 1012.6
20260904182750 73 333 6.0 10.0 0.00 0.00 0.00 68 1012.5
20260904182021 73 348 5.0 10.0 0.00 0.00 0.00 70 1012.5
20260904181742 73 341 4.0 10.0 0.00 0.00 0.00 69 1012.5
20260904181027 73 241 2.0 8.0 0.00 0.00 0.00 69 1012.7
20260904180739 73 350 4.0 10.0 0.00 0.00 0.00 68 1012.5
20260904180020 73 330 6.0 10.0 0.00 0.00 0.00 70 1012.5
20260904175519 73 299 5.0 13.0 0.00 0.00 0.00 70 1012.5
20260904175018 73 263 4.0 13.0 0.00 0.00 0.00 72 1012.6
20260904174519 73 344 8.0 9.0 0.00 0.00 0.00 70 1012.5
20260904174025 73 313 4.0 8.0 0.00 0.00 0.00 70 1012.5
20260904173520 73 264 4.0 8.0 0.00 0.00 0.00 68 1012.5
20260904173241 73 279 2.0 8.0 0.00 0.00 0.00 68 1012.5